User: anonymous   Login
Location: Petruro
(41.0333°N, 14.7833°E)
Time: 15:45:41
(UTC+00:00)
Language:

USA 308 - Orbit

View from above orbital plane
View from above orbital plane
View from above satellite
View from above satellite

Ground track
Ground track

The orbit data is extracted from the following two-line orbital elements,

1 45876U 20046D   21258.79052688 0.00002550  00000-0  20808-3 0    01
2 45876  53.9797 233.5635 0010943   4.0170 355.9829 14.98940420    00
Epoch (UTC): 15 September 2021 18:58:21
Eccentricity: 0.0010943
inclination: 53.9797°
perigee height: 562 km
apogee height: 578 km
right ascension of ascending node: 233.5635°
argument of perigee: 4.0170°
revolutions per day: 14.98940420
mean anomaly at epoch: 355.9829°
orbit number at epoch: 0

The dashed part of the orbit path shows where the satellite is in the earth's shadow,  

DLR